Change the Weather History Date:

Saturday, November 26, 2011

  Actual Average Record
Temperature  
Mean Temperature 49 °F -  
Max Temperature 57 °F 45 °F 69 °F (1965)
Min Temperature 41 °F 28 °F -3 °F (1977)
Degree Days  
Heating Degree Days 16    
Moisture  
Dew Point 44 °F    
Average Humidity 79    
Maximum Humidity 89    
Minimum Humidity 57    
Precipitation  
Precipitation 0.00 in - - ()
Sea Level Pressure  
Sea Level Pressure 29.84 in    
Wind  
Wind Speed 12 mph (SW)    
Max Wind Speed 21 mph    
Max Gust Speed 28 mph    
Visibility 7 miles    
Events Rain    
Averages and records for this station are not official NWS values.
T = Trace of Precipitation, MM = Missing Value Source: NWS Daily Summary

Daily Weather History Graph

Daily Weather History Graph

Search for Another Location

Airport or City:

Trip Planner

Search our weather history database for the weather conditions in past years. The results will help you decide how hot, cold, wet, or windy it might be!

Date:

Astronomy

Nov. 26, 2011 Rise Set
Actual Time 7:01 AM CST 4:36 PM CST
Civil Twilight 6:31 AM CST 5:06 PM CST
Nautical Twilight 5:57 AM CST 5:40 PM CST
Astronomical Twilight 5:24 AM CST 6:13 PM CST
Moon 8:32 AM CST (11/26) 6:07 PM CST (11/26)
Length of Visible Light 10h 35m
Length of Day
9h 34m
Waxing Crescent, 3% of the Moon is Illuminated
Nov 26
Waxing Crescent
Dec 2
First Quarter
Dec 10
Full
Dec 17
Last Quarter
Dec 24
New

Hourly Weather History & Observations

Time (CST) Temp. Windchill Dew Point Humidity Pressure Visibility Wind Dir Wind Speed Gust Speed Precip Events Conditions
12:15 AM 56.8 °F - 42.3 °F 58% 29.85 in 10.0 mi South 12.7 mph 18.4 mph N/A   Scattered Clouds
12:35 AM 57.4 °F - 42.1 °F 57% 29.84 in 10.0 mi South 16.1 mph 21.9 mph N/A   Overcast
12:55 AM 57.4 °F - 42.3 °F 57% 29.84 in 10.0 mi South 13.8 mph 20.7 mph N/A   Overcast
1:15 AM 57.2 °F - 42.1 °F 57% 29.84 in 10.0 mi SSE 12.7 mph 19.6 mph N/A   Overcast
1:35 AM 56.8 °F - 42.4 °F 59% 29.84 in 10.0 mi South 11.5 mph 16.1 mph N/A   Overcast
1:55 AM 56.7 °F - 42.6 °F 59% 29.84 in 10.0 mi SSE 11.5 mph 17.3 mph N/A   Overcast
2:15 AM 56.5 °F - 42.8 °F 60% 29.84 in 10.0 mi South 12.7 mph 19.6 mph N/A   Overcast
2:35 AM 56.3 °F - 42.8 °F 61% 29.84 in 10.0 mi South 13.8 mph 18.4 mph N/A   Overcast
2:55 AM 56.3 °F - 43.2 °F 61% 29.84 in 10.0 mi South 16.1 mph - N/A   Overcast
3:15 AM 55.9 °F - 43.3 °F 63% 29.84 in 10.0 mi South 13.8 mph 18.4 mph N/A   Overcast
3:35 AM 55.9 °F - 43.7 °F 63% 29.83 in 10.0 mi South 13.8 mph 18.4 mph N/A   Overcast
3:55 AM 55.9 °F - 43.7 °F 63% 29.83 in 10.0 mi South 15.0 mph 19.6 mph N/A   Overcast
4:15 AM 55.4 °F - 44.6 °F 67% 29.82 in 10.0 mi South 13.8 mph - N/A   Overcast
4:35 AM 55.6 °F - 44.6 °F 67% 29.82 in 10.0 mi South 12.7 mph 18.4 mph N/A   Overcast
4:55 AM 55.8 °F - 44.8 °F 67% 29.82 in 10.0 mi South 11.5 mph - N/A   Overcast
5:15 AM 55.9 °F - 45.0 °F 67% 29.82 in 10.0 mi South 12.7 mph - N/A   Overcast
5:35 AM 56.1 °F - 45.1 °F 67% 29.80 in 10.0 mi SSE 8.1 mph - N/A   Overcast
5:55 AM 57.2 °F - 46.4 °F 67% 29.82 in 10.0 mi South 13.8 mph 19.6 mph N/A   Overcast
6:15 AM 55.9 °F - 46.6 °F 71% 29.82 in 10.0 mi South 15.0 mph 19.6 mph N/A   Overcast
6:35 AM 55.8 °F - 46.8 °F 72% 29.83 in 10.0 mi South 12.7 mph - N/A   Overcast
6:55 AM 55.4 °F - 47.8 °F 76% 29.84 in 10.0 mi South 12.7 mph 19.6 mph N/A   Overcast
7:15 AM 54.7 °F - 49.1 °F 81% 29.85 in 4.0 mi South 11.5 mph - N/A Rain Rain
7:35 AM 54.1 °F - 50.0 °F 86% 29.84 in 3.0 mi South 11.5 mph - N/A   Heavy Drizzle
7:55 AM 54.0 °F - 50.2 °F 87% 29.84 in 5.0 mi South 8.1 mph - N/A   Drizzle
8:15 AM 54.0 °F - 50.4 °F 88% 29.84 in 3.0 mi South 8.1 mph - N/A   Heavy Drizzle
8:35 AM 54.1 °F - 50.5 °F 88% 29.84 in 2.5 mi SSE 5.8 mph - N/A   Heavy Drizzle
8:55 AM 55.4 °F - 51.8 °F 88% 29.83 in 3.0 mi SSE 5.8 mph - N/A   Drizzle
9:15 AM 54.5 °F - 51.1 °F 88% 29.83 in 3.0 mi South 6.9 mph - N/A   Drizzle
9:35 AM 54.5 °F - 51.1 °F 88% 29.83 in 3.0 mi SSE 4.6 mph - N/A Rain Heavy Rain
9:55 AM 54.5 °F - 51.3 °F 89% 29.83 in 5.0 mi South 3.5 mph - N/A Rain Rain
10:15 AM 54.7 °F - 51.4 °F 89% 29.82 in 3.0 mi SSW 3.5 mph - N/A Rain Rain
10:35 AM 54.9 °F - 51.8 °F 89% 29.82 in 5.0 mi South 3.5 mph - N/A Rain Rain
10:55 AM 55.0 °F - 51.8 °F 89% 29.82 in 7.0 mi South 3.5 mph - N/A Rain Rain
11:15 AM 55.4 °F - 52.0 °F 88% 29.82 in 5.0 mi Calm Calm - N/A Rain Rain
11:35 AM 55.4 °F - 52.0 °F 88% 29.81 in 4.0 mi West 4.6 mph - N/A Rain Rain
11:55 AM 55.0 °F - 51.8 °F 89% 29.80 in 5.0 mi Calm Calm - N/A Rain Heavy Rain
12:15 PM 55.4 °F - 52.2 °F 89% 29.80 in 4.0 mi WSW 3.5 mph - N/A Rain Rain
12:35 PM 55.8 °F - 52.7 °F 89% 29.79 in 10.0 mi Calm Calm - N/A Rain Light Rain
12:55 PM 55.9 °F - 52.3 °F 88% 29.79 in 10.0 mi West 5.8 mph - N/A Rain Light Rain
1:15 PM 55.9 °F - 52.2 °F 87% 29.78 in 10.0 mi West 5.8 mph - N/A Rain Light Rain
1:35 PM 55.4 °F - 51.8 °F 88% 29.78 in 10.0 mi West 8.1 mph - N/A Rain Rain
1:55 PM 55.6 °F - 51.8 °F 87% 29.78 in 7.0 mi WNW 8.1 mph - N/A Rain Rain
2:15 PM 50.2 °F - 45.9 °F 85% 29.79 in 5.0 mi West 17.3 mph 26.5 mph N/A Rain Light Rain
2:35 PM 48.9 °F - 45.0 °F 86% 29.80 in 4.0 mi WNW 15.0 mph 24.2 mph N/A Rain Rain
2:55 PM 47.7 °F - 43.9 °F 87% 29.79 in 4.0 mi WNW 15.0 mph 20.7 mph N/A Rain Rain
3:15 PM 47.1 °F - 43.3 °F 87% 29.80 in 5.0 mi WNW 13.8 mph 18.4 mph N/A Rain Rain
3:35 PM 46.6 °F - 42.8 °F 87% 29.82 in 4.0 mi WNW 12.7 mph 20.7 mph N/A Rain Light Rain
3:55 PM 45.9 °F 39.1 °F 41.9 °F 86% 29.80 in 4.0 mi WNW 16.1 mph - N/A Rain Light Rain
4:15 PM 45.7 °F 39.5 °F 41.5 °F 85% 29.82 in 4.0 mi WNW 13.8 mph 19.6 mph N/A Rain Light Rain
4:35 PM 45.7 °F 39.8 °F 41.9 °F 87% 29.83 in 4.0 mi WNW 12.7 mph 20.7 mph N/A Rain Rain
4:55 PM 45.5 °F 38.3 °F 41.4 °F 85% 29.84 in 5.0 mi WNW 17.3 mph 21.9 mph N/A Rain Light Rain
5:15 PM 45.1 °F 38.1 °F 41.0 °F 85% 29.84 in 5.0 mi WNW 16.1 mph 21.9 mph N/A Rain Rain
5:35 PM 44.4 °F 36.1 °F 39.9 °F 84% 29.86 in 7.0 mi West 20.7 mph 27.6 mph N/A Rain Rain
5:55 PM 44.6 °F 36.6 °F 39.2 °F 81% 29.86 in 5.0 mi WNW 19.6 mph 25.3 mph N/A Rain Light Rain
6:15 PM 43.2 °F 35.3 °F 39.0 °F 85% 29.86 in 5.0 mi WNW 17.3 mph 26.5 mph N/A Rain Rain
6:35 PM 42.8 °F 34.8 °F 38.3 °F 84% 29.87 in 7.0 mi West 17.3 mph 25.3 mph N/A Rain Light Rain
6:55 PM 42.4 °F 34.4 °F 38.3 °F 85% 29.87 in 7.0 mi West 17.3 mph 24.2 mph N/A Rain Light Rain
7:15 PM 42.3 °F 34.8 °F 38.1 °F 85% 29.88 in 7.0 mi WNW 15.0 mph - N/A Rain Light Rain
7:35 PM 42.1 °F 34.2 °F 37.9 °F 85% 29.88 in 7.0 mi WNW 16.1 mph 21.9 mph N/A Rain Light Rain
7:55 PM 42.1 °F 34.2 °F 37.9 °F 85% 29.89 in 7.0 mi WNW 16.1 mph 21.9 mph N/A Rain Light Rain
8:15 PM 41.9 °F 34.3 °F 37.8 °F 85% 29.88 in 7.0 mi WNW 15.0 mph 23.0 mph N/A Rain Light Rain
8:35 PM 41.9 °F 34.6 °F 37.8 °F 85% 29.88 in 7.0 mi WNW 13.8 mph 23.0 mph N/A Rain Light Rain
8:55 PM 41.9 °F 34.3 °F 37.8 °F 85% 29.89 in 10.0 mi WNW 15.0 mph 24.2 mph N/A Rain Light Rain
9:15 PM 41.9 °F 33.4 °F 37.8 °F 85% 29.90 in 10.0 mi WNW 18.4 mph 23.0 mph N/A Rain Rain
9:35 PM 41.9 °F 35.0 °F 37.4 °F 84% 29.90 in 10.0 mi WNW 12.7 mph 17.3 mph N/A   Light Drizzle
9:55 PM 42.8 °F 35.4 °F 37.4 °F 81% 29.91 in 10.0 mi WNW 15.0 mph 19.6 mph N/A Rain Light Rain
10:15 PM 42.8 °F 35.4 °F 37.4 °F 81% 29.90 in 10.0 mi WNW 15.0 mph 19.6 mph N/A Rain Light Rain
10:35 PM 41.7 °F 33.7 °F 37.4 °F 85% 29.90 in 10.0 mi WNW 16.1 mph 19.6 mph N/A Rain Light Rain
10:55 PM 41.9 °F 34.0 °F 37.4 °F 84% 29.91 in 10.0 mi WNW 16.1 mph 21.9 mph N/A   Overcast
11:15 PM 42.8 °F 35.4 °F 37.4 °F 81% 29.91 in 10.0 mi WNW 15.0 mph 21.9 mph N/A   Overcast
11:35 PM 42.8 °F 36.6 °F 37.4 °F 81% 29.92 in 10.0 mi WNW 11.5 mph 20.7 mph N/A   Overcast
11:55 PM 41.9 °F 35.0 °F 36.5 °F 81% 29.91 in 10.0 mi WNW 12.7 mph 19.6 mph N/A   Overcast